Погода в Копани

Украина / Запорожская область     47°27′12″N   35°43′52″E
темп.,
°C
ветер,
м/с
пор.,
м/с
влажн.,
%
обл.,
%
осадки,
мм/ч
давл.,
гПа
погр.,
м
20 апреля, вт
вт2000:00+9св1172100 0.0 101210
03:00+10св3373100 0.0 101059
06:00+9вюв3678100 0.1 1008156
09:00+9в4891100 1.9 1006423
12:00+9в2597100 5.9 1003436
15:00+11ююз588969 7.9 1002787
18:00+9з71093100 0.1 1002638
21:00+9з81492100 0.7 1006722
21 апреля, ср
ср2100:00+7зюз61291100 0.1 1009329
03:00+6юз4108772 0.1 1011230
06:00+5юз48894 0.0 1012155
09:00+11юз47685 0.0 1014538
12:00+14зюз6754100 0.5 10151662
15:00+15зюз6848100 0.9 10152076
18:00+13юз596525 0.3 1016959
21:00+9ююз49815 1.2 1018148
22 апреля, чт
чт2200:00+8ююз47891 0.0 1018131
03:00+7ююз35920 0.0 101980
06:00+6ююз34930 0.0 102080
09:00+11ююз45722 0.0 1021443
12:00+16юз44525 0.0 10211406
15:00+18юз4442100 0.8 10202400
18:00+14ююз356195 0.2 1021103
21:00+10ю488398 0.9 1022156
23 апреля, пт
пт2300:00+9ююз46895 0.1 1022115
03:00+8юз34855 0.1 102260
06:00+7ююз34893 0.0 102366
09:00+13ююз45630 0.0 1022458
12:00+17ююз56454 0.0 10221722
15:00+18ююз663973 0.0 10202369
18:00+15ю68540 0.0 10191004
21:00+10ю510775 0.0 1019241
24 апреля, сб
сб2400:00+9ю51279100 0.0 1018301
03:00+8ююз4885100 0.0 1017174
06:00+8юз3888100 0.0 1016429
09:00+7сз5882100 0.2 1019639
12:00+12зсз674961 0.1 10191657
15:00+13з911425 0.1 10181898
18:00+10зсз79430 0.0 10201549
21:00+6сз37550 0.0 1021134